sat.trackr.live / text

‹ back to catalog

STARLINK-3703

NORAD 52101 · 2022-029P

PAYLOAD ACTIVE UNKNOWN

§ Identity

Operator
Country
US
Launch date
2022-03-19
Launch site
AFETR
Launch vehicle
Mass (kg)
RCS (m²)

Purposes: comms

External: N2YO · Heavens-Above · Gunter

§ Orbital elements

Epoch: 2026-09-19T16:35:38.610240Z

Period
93.85 min
Inclination
53.1591°
Eccentricity
0.0001271
Mean motion
15.34377095 rev/d
Perigee alt
461.9 km
Apogee alt
463.6 km
Semi-major
6,840.9 km
B*
5.0319e-5
RAAN
285.8357°
Arg perigee
84.8673°
Mean anomaly
275.2475°
Rev number
25,010

§ Raw data

STARLINK-37031 52101U 22029P   26262.69141910  .00001323  00000+0  50319-4 0  99932 52101  53.1591 285.8357 0001271  84.8673 275.2475 15.34377095250104

JSON: /api/v1/satellites/52101 · /tle

For live sub-satellite position, see the globe view (requires WebGL).

§ Visibility from observer

Set your observer location to see the next 7 days of passes ≥ 10°. The values pass through the URL so the page stays shareable.

No JS? Fill the form by hand. The geolocation button needs JavaScript.